Weather in Inhambane

Mozambique     23°52′14″S   35°23′07″E
temp.,
°C
wind,
m/s
gust,
m/s
humid.,
%
clouds,
%
prec.,
mm/h
press.,
hPa
HPBL,
m
14 may, fri
fri1423:00+23ne55640 0.0 1020771
02:00+22ne44650 0.0 1019836
05:00+22n34690 0.0 1018670
08:00+22nw34710 0.0 1020701
11:00+23nne34650 0.0 1020802
14:00+24ne55650 0.0 1017667
17:00+24ne67690 0.0 1017594
20:00+24ne78700 0.0 1018675
15 may, sat
sat1523:00+24nne78710 0.0 1017755
02:00+23n56720 0.0 1016587
05:00+23nnw56780 0.0 1016509
08:00+23nnw57800 0.0 1017362
11:00+26nne56640 0.0 1016824
14:00+25ne88730 0.0 1013508
17:00+26nne910770 0.1 1012563
20:00+25n811780 0.1 1014700
16 may, sun
sun1623:00+24nnw710780 0.1 1014659
02:00+23nnw710820 0.1 1013438
05:00+23nnw610830 0.0 1013372
08:00+23nnw710800 0.0 1014419
11:00+27nne57660 0.0 1012369
14:00+27ne910761 0.0 1010374
17:00+26nne913764 0.0 1010323
20:00+26n7117823 0.0 1013419
17 may, mon
mon1723:00+25n710775 0.0 1013393
02:00+23nnw58815 0.0 1013285
05:00+21w34830 0.0 1015168
08:00+22sw34790 0.0 1016208
11:00+27sse34660 0.0 1016513
14:00+27se77690 0.0 1015564
17:00+25s89770 0.0 1016575
20:00+24s68790 0.0 1018546
18 may, tue
tue1823:00+24s57790 0.0 1018595
02:00+24sse57825 0.1 1018570
05:00+24sse57825 0.1 1019535
08:00+25sse46745 0.3 1021727
11:00+26se556912 0.1 1021844
14:00+26se66694 0.3 1020781
17:00+25ese77770 0.0 1020688
20:00+24ese677911 0.0 1021699